Change the Weather History Date:

Friday, February 1, 2013

  Actual Average (KMTC) Record (KMTC)
Temperature  
Mean Temperature 18 °F -  
Max Temperature 21 °F 32 °F 52 °F (1968)
Min Temperature 14 °F 19 °F -5 °F (1971)
Degree Days  
Heating Degree Days 48    
Moisture  
Dew Point 9 °F    
Average Humidity 66    
Maximum Humidity 86    
Minimum Humidity 54    
Precipitation  
Precipitation 0.00 in - - ()
Sea Level Pressure  
Sea Level Pressure 30.09 in    
Wind  
Wind Speed 9 mph (West)    
Max Wind Speed 16 mph    
Max Gust Speed 25 mph    
Visibility 10 miles    
Events Snow    
Averages and records for this station are not official NWS values.
T = Trace of Precipitation, MM = Missing Value Source: NWS Daily Summary

Daily Weather History Graph

Daily Weather History Graph

Search for Another Location

Airport or City:

Trip Planner

Search our weather history database for the weather conditions in past years. The results will help you decide how hot, cold, wet, or windy it might be!

Date:

Astronomy

Feb. 01, 2013 Rise Set
Actual Time 7:44 AM EST 5:43 PM EST
Civil Twilight 7:14 AM EST 6:13 PM EST
Nautical Twilight 6:40 AM EST 6:47 PM EST
Astronomical Twilight 6:07 AM EST 7:20 PM EST
Moon No Moon Rise 10:07 AM EST (2/1)
Length of Visible Light 10h 58m
Length of Day
9h 58m
Waning Gibbous, 70% of the Moon is Illuminated
Feb 1
Waning Gibbous
Feb 3
Last Quarter
Feb 10
New
Feb 17
First Quarter
Feb 25
Full

Hourly Weather History & Observations

Time (EST) Temp. Windchill Dew Point Humidity Pressure Visibility Wind Dir Wind Speed Gust Speed Precip Events Conditions
12:18 AM 19.4 °F 10.4 °F 12.2 °F 74% 29.82 in 10.0 mi West 6.9 mph - N/A   Overcast
12:58 AM 19.4 °F 10.4 °F 14.0 °F 80% 29.83 in 10.0 mi West 6.9 mph - N/A   Overcast
1:18 AM 17.6 °F 8.2 °F 14.0 °F 86% 29.83 in 7.0 mi West 6.9 mph - N/A   Overcast
1:38 AM 17.6 °F 10.7 °F 12.2 °F 79% 29.84 in 10.0 mi West 4.6 mph - N/A   Mostly Cloudy
1:58 AM 17.6 °F 6.4 °F 12.2 °F 79% 29.84 in 10.0 mi West 9.2 mph - N/A   Scattered Clouds
3:18 AM 17.6 °F 6.4 °F 12.2 °F 79% 29.88 in 10.0 mi West 9.2 mph - N/A   Scattered Clouds
3:38 AM 17.6 °F 8.2 °F 12.2 °F 79% 29.89 in 10.0 mi West 6.9 mph - N/A   Clear
3:58 AM 17.6 °F 9.3 °F 12.2 °F 79% 29.90 in 10.0 mi West 5.8 mph - N/A   Mostly Cloudy
4:18 AM 17.6 °F 9.3 °F 12.2 °F 79% 29.91 in 10.0 mi West 5.8 mph - N/A   Overcast
4:38 AM 17.6 °F 7.3 °F 12.2 °F 79% 29.92 in 10.0 mi West 8.1 mph - N/A   Overcast
4:58 AM 17.6 °F 7.3 °F 12.2 °F 79% 29.93 in 10.0 mi West 8.1 mph - N/A Snow Light Snow
5:18 AM 17.6 °F 7.3 °F 12.2 °F 79% 29.94 in 10.0 mi West 8.1 mph - N/A Snow Light Snow
5:38 AM 17.6 °F 6.4 °F 12.2 °F 79% 29.95 in 10.0 mi West 9.2 mph - N/A   Scattered Clouds
5:58 AM 17.6 °F 8.2 °F 12.2 °F 79% 29.96 in 10.0 mi West 6.9 mph - N/A   Clear
6:18 AM 15.8 °F 5.1 °F 10.4 °F 79% 29.97 in 10.0 mi West 8.1 mph - N/A   Clear
6:38 AM 15.8 °F 5.1 °F 10.4 °F 79% 29.99 in 10.0 mi West 8.1 mph - N/A   Clear
7:18 AM 15.8 °F 7.2 °F 10.4 °F 79% 30.01 in 10.0 mi West 5.8 mph 17.3 mph N/A   Scattered Clouds
7:38 AM 15.8 °F 6.1 °F 10.4 °F 79% 30.02 in 10.0 mi West 6.9 mph - N/A   Mostly Cloudy
7:58 AM 15.8 °F 2.7 °F 10.4 °F 79% 30.03 in 10.0 mi West 11.5 mph 18.4 mph N/A   Overcast
8:18 AM 15.8 °F 5.1 °F 10.4 °F 79% 30.04 in 10.0 mi West 8.1 mph - N/A   Scattered Clouds
8:38 AM 15.8 °F 4.2 °F 10.4 °F 79% 30.05 in 10.0 mi West 9.2 mph - N/A   Clear
8:58 AM 17.6 °F 7.3 °F 10.4 °F 73% 30.07 in 10.0 mi West 8.1 mph - N/A   Clear
9:18 AM 17.6 °F 7.3 °F 10.4 °F 73% 30.07 in 10.0 mi West 8.1 mph - N/A   Clear
9:38 AM 17.6 °F 6.4 °F 10.4 °F 73% 30.08 in 10.0 mi West 9.2 mph 19.6 mph N/A   Scattered Clouds
9:58 AM 19.4 °F 9.5 °F 10.4 °F 68% 30.09 in 10.0 mi West 8.1 mph 16.1 mph N/A   Scattered Clouds
10:18 AM 19.4 °F 7.9 °F 10.4 °F 68% 30.10 in 10.0 mi West 10.4 mph - N/A   Scattered Clouds
10:38 AM 21.2 °F 8.9 °F 10.4 °F 63% 30.11 in 10.0 mi WNW 12.7 mph 20.7 mph N/A   Scattered Clouds
10:58 AM 19.4 °F 6.0 °F 8.6 °F 63% 30.11 in 10.0 mi West 13.8 mph 25.3 mph N/A   Mostly Cloudy
11:18 AM 21.2 °F 8.3 °F 8.6 °F 58% 30.12 in 10.0 mi West 13.8 mph 18.4 mph N/A   Mostly Cloudy
11:38 AM 21.2 °F 7.3 °F 8.6 °F 58% 30.13 in 10.0 mi WNW 16.1 mph 21.9 mph N/A   Mostly Cloudy
11:58 AM 21.2 °F 10.9 °F 6.8 °F 54% 30.13 in 10.0 mi West 9.2 mph 23.0 mph N/A   Overcast
12:18 PM 21.2 °F 10.1 °F 6.8 °F 54% 30.14 in 10.0 mi West 10.4 mph 18.4 mph N/A   Overcast
12:38 PM 21.2 °F 10.1 °F 8.6 °F 58% 30.13 in 10.0 mi WNW 10.4 mph 24.2 mph N/A   Overcast
12:58 PM 21.2 °F 8.9 °F 8.6 °F 58% 30.14 in 10.0 mi West 12.7 mph 20.7 mph N/A   Overcast
1:18 PM 21.2 °F 8.9 °F 6.8 °F 54% 30.14 in 10.0 mi West 12.7 mph 18.4 mph N/A   Overcast
1:38 PM 21.2 °F 11.7 °F 10.4 °F 63% 30.15 in 10.0 mi West 8.1 mph 17.3 mph N/A   Overcast
1:58 PM 21.2 °F 10.1 °F 8.6 °F 58% 30.14 in 10.0 mi West 10.4 mph 17.3 mph N/A   Overcast
2:18 PM 21.2 °F 9.5 °F 6.8 °F 54% 30.15 in 10.0 mi West 11.5 mph 19.6 mph N/A   Overcast
2:38 PM 21.2 °F 8.9 °F 6.8 °F 54% 30.15 in 10.0 mi West 12.7 mph 18.4 mph N/A   Overcast
2:58 PM 21.2 °F 11.7 °F 8.6 °F 58% 30.15 in 10.0 mi West 8.1 mph 19.6 mph N/A   Overcast
3:18 PM 21.2 °F 10.1 °F 6.8 °F 54% 30.16 in 10.0 mi West 10.4 mph 16.1 mph N/A   Overcast
3:38 PM 19.4 °F 7.2 °F 6.8 °F 58% 30.16 in 10.0 mi West 11.5 mph 19.6 mph N/A   Overcast
3:58 PM 21.2 °F 9.5 °F 6.8 °F 54% 30.16 in 10.0 mi West 11.5 mph 18.4 mph N/A   Overcast
4:18 PM 21.2 °F 12.6 °F 6.8 °F 54% 30.17 in 10.0 mi West 6.9 mph - N/A   Overcast
4:38 PM 21.2 °F 10.9 °F 6.8 °F 54% 30.17 in 10.0 mi West 9.2 mph 19.6 mph N/A   Overcast
4:58 PM 21.2 °F 10.9 °F 6.8 °F 54% 30.17 in 10.0 mi West 9.2 mph - N/A   Overcast
5:18 PM 21.2 °F 11.7 °F 6.8 °F 54% 30.17 in 10.0 mi WSW 8.1 mph - N/A   Overcast
5:38 PM 19.4 °F 11.5 °F 8.6 °F 63% 30.17 in 10.0 mi West 5.8 mph - N/A   Overcast
5:58 PM 19.4 °F 10.4 °F 8.6 °F 63% 30.18 in 10.0 mi WSW 6.9 mph 16.1 mph N/A Snow Light Snow
6:18 PM 19.4 °F 9.5 °F 6.8 °F 58% 30.18 in 10.0 mi SW 8.1 mph 16.1 mph N/A   Overcast
6:38 PM 19.4 °F 8.6 °F 6.8 °F 58% 30.18 in 10.0 mi SW 9.2 mph 16.1 mph N/A   Overcast
6:58 PM 19.4 °F - 6.8 °F 58% 30.19 in 10.0 mi North - - N/A   Overcast
7:18 PM 19.4 °F 8.6 °F 8.6 °F 63% 30.19 in 10.0 mi WSW 9.2 mph - N/A   Overcast
7:38 PM 19.4 °F 11.5 °F 6.8 °F 58% 30.19 in 10.0 mi WSW 5.8 mph - N/A   Overcast
7:58 PM 17.6 °F 5.0 °F 8.6 °F 68% 30.19 in 10.0 mi WSW 11.5 mph - N/A   Overcast
8:18 PM 17.6 °F 7.3 °F 6.8 °F 63% 30.20 in 10.0 mi SW 8.1 mph - N/A   Overcast
8:38 PM 17.6 °F 5.0 °F 6.8 °F 63% 30.20 in 10.0 mi SW 11.5 mph 19.6 mph N/A   Overcast
9:03 PM 15.8 °F 3.4 °F 5.0 °F 62% 30.21 in 10.0 mi WSW 10.4 mph 17.3 mph N/A   Overcast
9:18 PM 15.8 °F 5.1 °F 5.0 °F 62% 30.21 in 10.0 mi WSW 8.1 mph 16.1 mph N/A   Overcast
9:38 PM 15.8 °F 2.7 °F 5.0 °F 62% 30.21 in 10.0 mi WSW 11.5 mph 18.4 mph N/A   Overcast
9:58 PM 14.0 °F 2.9 °F 3.2 °F 62% 30.21 in 10.0 mi West 8.1 mph 17.3 mph N/A   Overcast
10:18 PM 14.0 °F 3.9 °F 5.0 °F 67% 30.21 in 10.0 mi SW 6.9 mph - N/A   Mostly Cloudy
10:38 PM 14.0 °F 1.2 °F 3.2 °F 62% 30.21 in 10.0 mi SW 10.4 mph 18.4 mph N/A   Scattered Clouds
10:58 PM 14.0 °F -0.8 °F 3.2 °F 62% 30.21 in 10.0 mi SW 13.8 mph 18.4 mph N/A   Mostly Cloudy
11:18 PM 14.0 °F 2.0 °F 3.2 °F 62% 30.21 in 10.0 mi SW 9.2 mph 18.4 mph N/A   Overcast
11:38 PM 14.0 °F 1.2 °F 3.2 °F 62% 30.20 in 10.0 mi SSW 10.4 mph 16.1 mph N/A   Overcast
11:58 PM 14.0 °F 0.5 °F 3.2 °F 62% 30.19 in 10.0 mi SSW 11.5 mph 17.3 mph N/A   Overcast